Location: Oberkirch
(48.5323°N, 8.0787°E)
Time: 06:03:26
(UTC+00:00)

COSMO-SKYMED 1 - Pass Details

Date: 08 November 2025
Orbit: 579 x 581 km, 97.9° (Epoch: 17 December)

Event Time Altitude Azimuth Distance (km) Brightness Sun altitude
Rises 04:54:15 0° 170° (S) 2,793 6.2 -15.2°
Reaches altitude 10° 04:56:24 10° 172° (S) 1,898 5.3 -14.8°
Maximum altitude 05:00:31 72° 257° (WSW) 618 2.3 -14.2°
Drops below altitude 10° 05:04:39 10° 343° (NNW) 1,913 4.8 -13.5°
Sets 05:06:50 0° 345° (NNW) 2,818 5.7 -13.1°
